FW5429 Weather Reports


time (UTC)temp
C
wind
direction
speed
KPH
gust
KPH
rain 1hr
cm
rain 24hr
cm
rain mn
cm
humidity
%
barometer
mb
20260506122512 13 189 3.2 9.7 0.00 0.00 0.00 83 1008.6
20260506122012 13 231 1.6 8.0 0.00 0.00 0.00 84 1008.5
20260506121528 13 215 3.2 8.0 0.00 0.00 0.00 84 1008.6
20260506121011 13 0 0.0 6.4 0.00 0.00 0.00 84 1008.8
20260506120511 13 0 1.6 6.4 0.00 0.00 0.00 84 1008.7
20260506120047 12 210 1.6 6.4 0.00 0.00 0.00 84 1008.8
20260506115508 12 209 0.0 4.8 0.00 0.00 0.00 85 1008.8
20260506115013 12 196 0.0 4.8 0.00 0.00 0.00 86 1008.7
20260506114526 12 0 1.6 4.8 0.00 0.00 0.00 86 1009.0
20260506114012 12 209 0.0 4.8 0.00 0.00 0.00 86 1009.1
20260506113511 12 0 0.0 3.2 0.00 0.00 0.00 86 1009.1
20260506113028 11 200 0.0 4.8 0.00 0.00 0.00 86 1008.9
20260506112510 11 208 1.6 4.8 0.00 0.00 0.00 86 1008.9
20260506112010 11 200 0.0 4.8 0.00 0.00 0.00 87 1009.1
20260506111527 11 0 0.0 4.8 0.00 0.00 0.00 87 1009.0
20260506111010 11 0 0.0 4.8 0.00 0.00 0.00 87 1009.0
20260506110509 11 0 0.0 6.4 0.00 0.00 0.00 87 1008.9
20260506110030 11 202 1.6 6.4 0.00 0.00 0.00 88 1009.0
20260506105507 11 211 0.0 3.2 0.00 0.00 0.00 89 1008.9
20260506105010 11 211 0.0 3.2 0.00 0.00 0.00 89 1008.9
20260506104538 10 0 0.0 3.2 0.00 0.00 0.00 89 1009.0
20260506104016 10 0 0.0 3.2 0.00 0.00 0.00 89 1009.2
20260506103510 10 0 0.0 3.2 0.00 0.00 0.00 89 1008.9
20260506103039 10 0 0.0 3.2 0.00 0.00 0.00 89 1009.0
20260506102516 10 0 0.0 3.2 0.00 0.00 0.00 89 1009.1
20260506102010 10 0 0.0 3.2 0.00 0.00 0.00 89 1009.1
20260506101528 10 0 0.0 3.2 0.00 0.00 0.00 89 1009.1
20260506101009 10 0 0.0 3.2 0.00 0.00 0.00 90 1008.8
20260506100516 10 211 0.0 3.2 0.00 0.00 0.00 90 1008.7
20260506100027 10 211 0.0 3.2 0.00 0.00 0.00 90 1008.9
20260506095510 9 0 0.0 0.0 0.00 0.00 0.00 90 1009.0
20260506095011 9 0 0.0 0.0 0.00 0.00 0.00 90 1009.0
20260506094528 9 0 0.0 0.0 0.00 0.00 0.00 90 1009.0
20260506094010 9 0 0.0 1.6 0.00 0.00 0.00 90 1008.9
20260506093511 9 0 0.0 1.6 0.00 0.00 0.00 89 1008.9
20260506093028 9 0 0.0 1.6 0.00 0.00 0.00 89 1008.8
20260506092509 9 0 0.0 1.6 0.00 0.00 0.00 89 1008.9
20260506092011 9 0 0.0 1.6 0.00 0.00 0.00 89 1008.7
20260506091528 10 0 0.0 1.6 0.00 0.00 0.00 89 1008.7
20260506091007 10 0 0.0 0.0 0.00 0.00 0.00 88 1008.7
20260506090510 10 0 0.0 1.6 0.00 0.00 0.00 88 1008.8
20260506090027 10 0 0.0 1.6 0.00 0.00 0.00 88 1008.9
20260506085510 10 0 0.0 1.6 0.00 0.00 0.00 88 1008.7
20260506085008 10 0 0.0 1.6 0.00 0.00 0.00 87 1008.7
20260506084558 10 0 0.0 1.6 0.00 0.00 0.00 87 1008.7
20260506084012 10 0 0.0 1.6 0.00 0.00 0.00 87 1008.7
20260506083511 10 211 0.0 3.2 0.00 0.00 0.00 87 1008.7
20260506083024 10 0 0.0 3.2 0.00 0.00 0.00 87 1008.6
20260506082508 10 0 0.0 1.6 0.00 0.00 0.00 86 1008.7
20260506082013 10 0 0.0 1.6 0.00 0.00 0.00 86 1008.6
20260506081537 10 0 0.0 1.6 0.00 0.00 0.00 86 1008.6
20260506081011 10 0 0.0 1.6 0.00 0.00 0.00 86 1008.5
20260506080508 10 0 0.0 1.6 0.00 0.00 0.00 85 1008.7
20260506073512 10 0 0.0 3.2 0.00 0.00 0.00 84 1008.3
20260506073026 11 0 0.0 3.2 0.00 0.00 0.00 84 1008.4
20260506072512 10 0 0.0 3.2 0.00 0.00 0.00 84 1008.3
20260506072013 10 0 0.0 6.4 0.00 0.00 0.00 84 1008.1
20260506071528 11 0 0.0 6.4 0.00 0.00 0.00 84 1008.1
20260506071009 11 0 0.0 3.2 0.00 0.00 0.00 84 1007.9
20260506070509 11 0 0.0 3.2 0.00 0.00 0.00 84 1007.9
20260506062512 11 0 0.0 4.8 0.00 0.00 0.00 82 1007.9
20260506062014 11 215 0.0 4.8 0.00 0.00 0.00 82 1007.8
20260506061526 11 0 0.0 4.8 0.00 0.00 0.00 82 1007.8
20260506061011 11 0 1.6 4.8 0.00 0.00 0.00 81 1007.8
20260506060510 11 0 0.0 4.8 0.00 0.00 0.00 81 1007.9
20260506051013 12 0 0.0 4.8 0.00 0.00 0.00 79 1008.0
20260506050511 12 0 0.0 4.8 0.00 0.00 0.00 79 1008.0
20260506045010 12 0 0.0 3.2 0.00 0.00 0.00 79 1008.0
20260506044525 12 0 0.0 4.8 0.00 0.00 0.00 79 1008.0
20260506043027 12 0 0.0 4.8 0.00 0.00 0.00 78 1008.0
20260506042511 12 0 0.0 3.2 0.00 0.00 0.00 78 1007.9
20260506042010 12 226 0.0 3.2 0.00 0.00 0.00 78 1007.9
20260506041528 12 0 0.0 4.8 0.00 0.00 0.00 78 1007.9
20260506041009 12 0 0.0 4.8 0.00 0.00 0.00 78 1007.9
20260506040509 12 243 0.0 3.2 0.00 0.00 0.00 78 1008.0
20260506040032 12 209 0.0 3.2 0.00 0.00 0.00 77 1007.9
20260506035511 12 0 0.0 3.2 0.00 0.00 0.00 77 1007.8
20260506035010 12 209 0.0 3.2 0.00 0.00 0.00 77 1007.9
20260506034529 12 209 0.0 4.8 0.00 0.00 0.00 77 1007.9
20260506034010 12 209 1.6 4.8 0.00 0.00 0.00 76 1007.7
20260506033509 13 209 0.0 3.2 0.00 0.00 0.00 76 1007.7
20260506033026 13 0 0.0 4.8 0.00 0.00 0.00 76 1007.8
20260506032510 13 178 0.0 4.8 0.00 0.00 0.00 76 1007.9
20260506032010 13 227 1.6 4.8 0.00 0.00 0.00 76 1007.8
20260506031539 13 200 1.6 4.8 0.00 0.00 0.00 75 1007.9
20260506031010 13 0 0.0 4.8 0.00 0.00 0.00 75 1007.8
20260506030512 13 196 0.0 1.6 0.00 0.00 0.00 75 1007.8
20260506030027 13 0 0.0 1.6 0.00 0.00 0.00 75 1007.7
20260506025507 13 196 0.0 1.6 0.00 0.00 0.00 74 1007.7
20260506025012 13 0 0.0 1.6 0.00 0.00 0.00 74 1007.8
20260506024533 13 0 0.0 1.6 0.00 0.00 0.00 74 1007.9
20260506024010 13 196 0.0 1.6 0.00 0.00 0.00 74 1007.8
20260506023510 13 0 0.0 1.6 0.00 0.00 0.00 74 1008.0
20260506023049 14 0 0.0 1.6 0.00 0.00 0.00 74 1007.8
20260506022507 14 0 0.0 1.6 0.00 0.00 0.00 73 1007.9
20260506022008 14 0 0.0 3.2 0.00 0.00 0.00 73 1007.9
20260506021543 14 0 0.0 3.2 0.00 0.00 0.00 73 1007.7
20260506021009 14 169 0.0 1.6 0.00 0.00 0.00 72 1007.8
20260506020507 15 0 0.0 1.6 0.00 0.00 0.00 72 1007.8
20260506020028 15 0 0.0 1.6 0.00 0.00 0.00 73 1008.0
20260506015509 15 0 0.0 1.6 0.00 0.00 0.00 72 1007.9
20260506015008 15 0 0.0 1.6 0.00 0.00 0.00 71 1007.9
20260506014526 15 0 0.0 1.6 0.00 0.00 0.00 71 1008.0
20260506014009 15 0 0.0 1.6 0.00 0.00 0.00 70 1007.9
20260506013513 15 0 0.0 1.6 0.00 0.00 0.00 70 1007.8
20260506013032 15 0 0.0 1.6 0.00 0.00 0.00 70 1007.9
20260506012510 15 0 0.0 3.2 0.00 0.00 0.00 69 1008.0
20260506012013 16 0 0.0 3.2 0.00 0.00 0.00 69 1007.9
20260506011526 16 0 0.0 0.0 0.00 0.00 0.00 68 1007.7
20260506011007 16 0 0.0 1.6 0.00 0.00 0.00 68 1007.7
20260506010510 16 0 0.0 1.6 0.00 0.00 0.00 68 1007.7
20260506010029 16 0 0.0 1.6 0.00 0.00 0.00 67 1007.4
20260506005508 16 0 0.0 3.2 0.00 0.00 0.00 67 1007.4
20260506005011 16 0 0.0 3.2 0.00 0.00 0.00 67 1007.4
20260506004529 16 200 0.0 3.2 0.00 0.00 0.00 66 1007.4
20260506004011 16 0 0.0 3.2 0.00 0.00 0.00 66 1007.4
20260506003517 16 0 0.0 4.8 0.00 0.00 0.00 66 1007.3
20260506003027 17 102 1.6 4.8 0.00 0.00 0.00 65 1007.3
20260506002507 17 0 0.0 4.8 0.00 0.00 0.00 65 1007.1
20260506002011 17 0 0.0 4.8 0.00 0.00 0.00 64 1007.0
20260506001527 17 98 0.0 3.2 0.00 0.00 0.00 64 1006.8
20260506001012 17 0 0.0 3.2 0.00 0.00 0.00 64 1006.6
20260506000511 17 88 0.0 4.8 0.00 0.00 0.00 63 1006.4
20260506000028 17 333 0.0 4.8 0.00 0.00 0.00 63 1006.4
20260505235511 17 0 0.0 4.8 0.00 0.00 0.00 63 1006.1
20260505235007 17 0 0.0 6.4 0.00 0.00 0.00 63 1006.2
20260505234528 17 0 1.6 6.4 0.00 0.00 0.00 63 1006.1
20260505234007 17 274 1.6 6.4 0.00 0.00 0.00 63 1006.0
20260505233511 17 257 1.6 9.7 0.00 0.00 0.00 63 1005.6
20260505233028 17 211 1.6 9.7 0.00 0.00 0.00 63 1006.0
20260505232508 17 98 3.2 9.7 0.00 0.00 0.00 64 1006.0
20260505232010 17 17 1.6 4.8 0.00 0.00 0.00 63 1006.1
20260505231541 17 105 1.6 6.4 0.00 0.00 0.00 64 1006.2
20260505231013 17 92 1.6 9.7 0.00 0.00 0.00 64 1006.1
20260505230510 17 62 1.6 14.5 0.00 0.00 0.00 63 1006.1
20260505230027 17 178 4.8 17.7 0.00 0.00 0.00 63 1004.9
20260505225511 17 260 4.8 17.7 0.00 0.00 0.00 63 1004.6
20260505225017 17 203 4.8 17.7 0.00 0.00 0.00 62 1004.4
20260505224528 17 170 4.8 17.7 0.00 0.00 0.00 62 1004.4
20260505224009 17 209 6.4 22.5 0.00 0.00 0.00 62 1004.3
20260505223510 17 231 6.4 22.5 0.00 0.00 0.00 61 1004.2
20260505223028 17 184 6.4 22.5 0.00 0.00 0.00 61 1004.2
20260505222512 17 178 8.0 22.5 0.00 0.00 0.00 61 1004.1
20260505222012 18 207 4.8 20.9 0.00 0.00 0.00 60 1004.3
20260505221526 18 234 8.0 20.9 0.00 0.00 0.00 61 1004.1
20260505221011 18 207 6.4 16.1 0.00 0.00 0.00 61 1004.0
20260505220512 18 241 6.4 16.1 0.00 0.00 0.00 61 1004.2
20260505220027 18 202 6.4 19.3 0.00 0.00 0.00 61 1004.0
20260505215511 18 229 4.8 19.3 0.00 0.00 0.00 60 1003.9
20260505215012 18 204 6.4 30.6 0.00 0.00 0.00 62 1003.9
20260505214535 17 211 6.4 30.6 0.00 0.00 0.00 62 1003.9
20260505214018 17 217 8.0 24.1 0.00 0.00 0.00 62 1003.9
20260505213510 17 231 6.4 24.1 0.00 0.00 0.00 62 1003.8
20260505213035 17 166 8.0 20.9 0.00 0.00 0.00 63 1003.9
20260505212508 17 193 6.4 22.5 0.00 0.00 0.00 63 1003.8
20260505212012 17 213 9.7 22.5 0.00 0.00 0.00 62 1003.9
20260505211526 17 273 4.8 22.5 0.00 0.00 0.00 62 1003.9
20260505211008 17 203 8.0 19.3 0.00 0.00 0.00 62 1003.8
20260505210511 17 191 8.0 16.1 0.00 0.00 0.00 61 1003.9
20260505210026 17 211 6.4 20.9 0.00 0.00 0.00 62 1003.8
20260505205516 18 263 8.0 25.7 0.00 0.00 0.00 61 1003.8
20260505205012 18 218 8.0 25.7 0.00 0.00 0.00 59 1004.0
20260505204010 19 160 6.4 20.9 0.00 0.00 0.00 58 1003.8
20260505203510 19 185 6.4 20.9 0.00 0.00 0.00 58 1003.9
20260505203047 20 205 8.0 17.7 0.00 0.00 0.00 57 1003.9
20260505202511 20 196 8.0 30.6 0.00 0.00 0.00 56 1003.9
20260505202009 20 181 9.7 30.6 0.00 0.00 0.00 57 1003.8
20260505201533 20 131 11.3 29.0 0.00 0.00 0.00 56 1004.0
20260505201011 20 104 6.4 17.7 0.00 0.00 0.00 56 1003.8
20260505200511 20 108 8.0 20.9 0.00 0.00 0.00 55 1003.9
20260505200026 20 227 9.7 20.9 0.00 0.00 0.00 55 1004.0
20260505195511 20 207 6.4 20.9 0.00 0.00 0.00 55 1004.2
20260505195012 20 217 6.4 19.3 0.00 0.00 0.00 55 1004.0
20260505194528 20 205 6.4 19.3 0.00 0.00 0.00 56 1004.3
20260505194010 20 202 6.4 16.1 0.00 0.00 0.00 57 1004.2
20260505193511 20 135 4.8 19.3 0.00 0.00 0.00 58 1004.4
20260505193031 20 198 4.8 19.3 0.00 0.00 0.00 58 1004.7
20260505192512 20 222 6.4 16.1 0.00 0.00 0.00 58 1004.8
20260505192010 20 212 8.0 17.7 0.00 0.00 0.00 57 1004.9
20260505191530 20 175 3.2 17.7 0.00 0.00 0.00 56 1004.9
20260505191011 21 215 8.0 22.5 0.00 0.00 0.00 54 1005.0
20260505190510 21 210 8.0 22.5 0.00 0.00 0.00 55 1005.0
20260505190030 21 205 4.8 14.5 0.00 0.00 0.00 57 1005.2
20260505185518 20 210 4.8 16.1 0.00 0.00 0.00 57 1005.2
20260505185010 20 259 6.4 17.7 0.00 0.00 0.00 56 1005.4
20260505184534 20 190 4.8 17.7 0.00 0.00 0.00 57 1005.4
20260505184011 20 196 6.4 17.7 0.00 0.00 0.00 56 1005.5
20260505183512 20 204 6.4 14.5 0.00 0.00 0.00 56 1005.4
20260505183027 20 215 4.8 14.5 0.00 0.00 0.00 57 1005.4
20260505182510 20 221 6.4 17.7 0.00 0.00 0.00 57 1005.5
20260505182016 20 218 6.4 17.7 0.00 0.00 0.00 57 1005.5
20260505181533 20 217 4.8 17.7 0.00 0.00 0.00 58 1005.5
20260505181011 19 60 6.4 24.1 0.00 0.00 0.00 59 1005.5
20260505180512 19 213 8.0 24.1 0.00 0.00 0.00 58 1005.5
20260505180030 19 189 6.4 22.5 0.00 0.00 0.00 58 1005.4
20260505175513 19 180 8.0 22.5 0.00 0.00 0.00 57 1005.5
20260505175008 20 134 8.0 22.5 0.00 0.00 0.00 57 1005.6
20260505174538 20 196 6.4 20.9 0.00 0.00 0.00 57 1005.7
20260505174009 20 185 9.7 22.5 0.00 0.00 0.00 57 1005.8
20260505173508 20 221 8.0 22.5 0.00 0.00 0.00 55 1005.8
20260505173026 20 227 6.4 20.9 0.00 0.00 0.00 57 1005.8
20260505172511 20 190 6.4 16.1 0.00 0.00 0.00 57 1005.8
20260505172012 20 189 4.8 17.7 0.00 0.00 0.00 57 1005.8
20260505171528 20 217 6.4 17.7 0.00 0.00 0.00 55 1005.9
20260505171011 20 130 3.2 17.7 0.00 0.00 0.00 55 1006.0
20260505170508 21 123 3.2 16.1 0.00 0.00 0.00 54 1005.9
20260505170027 21 203 6.4 16.1 0.00 0.00 0.00 54 1006.0
20260505165511 21 119 4.8 16.1 0.00 0.00 0.00 55 1006.2
20260505165008 21 209 6.4 16.1 0.00 0.00 0.00 53 1006.3
20260505164525 21 212 3.2 12.9 0.00 0.00 0.00 53 1006.3
20260505164010 21 306 3.2 14.5 0.00 0.00 0.00 53 1006.4
20260505163511 22 211 6.4 19.3 0.00 0.00 0.00 52 1006.5
20260505163133 22 194 4.8 19.3 0.00 0.00 0.00 52 1006.7
20260505162509 22 188 3.2 16.1 0.00 0.00 0.00 51 1006.9
20260505162010 22 138 3.2 16.1 0.00 0.00 0.00 51 1006.8
20260505161528 23 217 4.8 11.3 0.00 0.00 0.00 49 1006.9
20260505161011 23 145 3.2 9.7 0.00 0.00 0.00 48 1007.1
20260505160512 24 213 3.2 12.9 0.00 0.00 0.00 47 1007.2
20260505153026 22 130 3.2 8.0 0.00 0.00 0.00 52 1007.6
20260505152511 22 85 3.2 14.5 0.00 0.00 0.00 52 1007.6
20260505152015 22 0 3.2 14.5 0.00 0.00 0.00 52 1007.8
20260505151531 21 163 3.2 14.5 0.00 0.00 0.00 52 1007.7
20260505151009 20 199 3.2 12.9 0.00 0.00 0.00 55 1007.7
20260505150511 19 232 3.2 8.0 0.00 0.00 0.00 59 1007.8
20260505140510 16 136 0.0 11.3 0.00 0.00 0.00 66 1007.8
20260505125010 15 180 1.6 8.0 0.00 0.00 0.00 68 1008.6
20260505124529 15 244 1.6 8.0 0.00 0.00 0.00 67 1008.3
20260505124010 15 225 3.2 6.4 0.00 0.00 0.00 68 1008.3
20260505123508 15 232 1.6 8.0 0.00 0.00 0.00 68 1008.1
20260505123026 15 216 1.6 8.0 0.00 0.00 0.00 69 1007.9